Location: Armstrong
(40.9123°N, 82.0110°W)
Time: 08:22:38
(UTC+00:00)

SAR-Lupe-4 - Pass Details

Date: 29 October 2020
Orbit: 481 x 484 km, 98.2° (Epoch: 22 November)

Event Time Altitude Azimuth Distance (km) Brightness Sun altitude
Rises 23:22:38 0° 13° (NNE) 2,552 7.0 -11.1°
Reaches altitude 10° 23:24:43 10° 13° (NNE) 1,667 6.1 -11.4°
Maximum altitude 23:28:17 88° 96° (E) 488 3.5 -12.1°
Drops below altitude 10° 23:31:51 10° 193° (SSW) 1,654 6.5 -12.8°
Sets 23:33:54 0° 194° (SSW) 2,529 7.5 -13.2°
